Latest Weather Observations for Rhyll

IDV60901

Issued at 7:35 am EST Tuesday 2 September 2014 (issued every 10 minutes, with the page automatically refreshed every 10 minutes)

About weather observations | Map of Melbourne area stations | Latest observations for Melbourne area | Other Formats
Station Details ID: 086373 Name: RHYLL Lat: -38.46 Lon: 145.31 Height: 13.4 m
Data from the previous 72 hours. | See also: Recent months at Rhyll
Date/Time
EST
Tmp

°C
App
Tmp
°C
Dew
Point
°C
Rel
Hum
%
Delta-T

°C
Wind Press
QNH
hPa
Press
MSL
hPa
Rain
since
9 am
mm
Dir
 
Spd
km/h
Gust
km/h
Spd
kts
Gust
kts
02/07:30am 11.4 7.8 6.9 74 2.1 S 15 28 8 15 1016.0 1016.0 6.8
02/07:00am 11.4 8.0 7.5 77 1.9 SSW 15 26 8 14 1015.6 1015.6 6.8
02/06:30am 11.1 7.7 7.6 79 1.7 SSW 15 24 8 13 1015.1 1015.1 6.8
02/06:00am 10.9 7.1 5.9 71 2.3 SSW 15 26 8 14 1014.7 1014.7 6.8
02/05:30am 11.2 7.7 7.1 76 2.0 SSW 15 30 8 16 1014.3 1014.3 6.8
02/05:00am 11.3 7.8 7.2 76 2.0 SSW 15 24 8 13 1014.0 1014.0 6.8
02/04:30am 11.2 7.6 6.9 75 2.0 SW 15 28 8 15 1013.7 1013.7 6.8
02/04:00am 11.1 8.0 7.4 78 1.8 SW 13 26 7 14 1013.4 1013.4 6.8
02/03:30am 11.1 7.6 7.2 77 1.9 SW 15 22 8 12 1013.2 1013.2 6.8
02/03:00am 10.9 8.3 7.6 80 1.6 SW 11 19 6 10 1013.0 1013.0 6.8
02/02:30am 11.2 7.7 7.3 77 1.9 SSW 15 24 8 13 1012.9 1012.9 6.8
02/02:00am 11.1 7.9 7.0 76 2.0 SW 13 20 7 11 1012.8 1012.8 6.8
02/01:30am 11.3 8.6 7.2 76 2.0 SW 11 17 6 9 1012.8 1012.8 6.8
02/01:00am 11.3 8.9 7.0 75 2.1 SW 9 15 5 8 1012.7 1012.7 6.8
02/12:30am 11.4 8.7 7.5 77 1.9 SW 11 20 6 11 1012.6 1012.6 6.8
02/12:00am 11.5 9.3 8.0 79 1.7 SW 9 15 5 8 1012.4 1012.4 6.8
 
Date/Time
EST
Tmp

°C
App
Tmp
°C
Dew
Point
°C
Rel
Hum
%
Delta-T

°C
Wind Press
QNH
hPa
Press
MSL
hPa
Rain
since
9 am
mm
Dir
 
Spd
km/h
Gust
km/h
Spd
kts
Gust
kts
01/11:30pm 11.3 9.5 8.0 80 1.6 SW 7 11 4 6 1012.2 1012.2 6.8
01/11:00pm 11.3 9.5 8.0 80 1.6 WSW 7 13 4 7 1012.2 1012.2 6.8
01/10:30pm 10.8 9.2 7.9 82 1.4 WSW 6 9 3 5 1012.2 1012.2 6.8
01/10:00pm 11.1 9.3 8.1 82 1.5 WSW 7 11 4 6 1012.0 1012.0 6.8
01/09:30pm 10.9 9.4 8.3 84 1.3 WSW 6 9 3 5 1011.6 1011.6 6.8
01/09:00pm 10.9 9.1 8.0 82 1.4 SW 7 13 4 7 1011.3 1011.3 6.8
01/08:30pm 11.1 8.6 8.1 82 1.5 SW 11 15 6 8 1011.2 1011.2 6.8
01/08:00pm 11.2 8.9 8.9 86 1.1 SW 11 19 6 10 1010.9 1010.9 6.8
01/07:30pm 11.2 9.4 9.6 90 0.8 SW 9 15 5 8 1010.7 1010.7 6.8
01/07:00pm 10.9 9.2 9.7 92 0.6 SW 9 17 5 9 1010.5 1010.5 6.8
01/06:30pm 11.3 9.4 9.2 87 1.0 SW 9 15 5 8 1010.0 1010.0 5.8
01/06:00pm 11.3 8.3 9.2 87 1.1 SW 15 24 8 13 1009.6 1009.6 5.8
01/05:30pm 11.5 10.0 10.4 93 0.6 WSW 9 17 5 9 1009.2 1009.2 5.8
01/05:00pm 11.3 10.3 10.2 93 0.6 WSW 6 9 3 5 1008.9 1008.9 5.8
01/04:30pm 11.4 10.9 10.6 95 0.4 WSW 4 7 2 4 1008.5 1008.5 5.4
01/04:00pm 11.3 10.2 10.5 95 0.4 W 7 11 4 6 1008.4 1008.4 5.4
01/03:30pm 11.4 10.5 10.6 95 0.4 WNW 6 11 3 6 1008.4 1008.4 4.8
01/03:00pm 11.4 9.8 10.3 93 0.6 WNW 9 17 5 9 1008.4 1008.4 3.4
01/02:30pm 12.1 11.2 10.8 92 0.7 WNW 6 19 3 10 1008.0 1008.0 1.8
01/02:00pm 12.1 11.0 10.8 92 0.7 NW 7 15 4 8 1008.0 1008.0 1.8
01/01:30pm 12.2 9.9 10.6 90 0.8 NW 13 24 7 13 1008.1 1008.1 1.2
01/01:00pm 11.8 9.9 10.4 91 0.7 NW 11 22 6 12 1008.2 1008.2 1.2
01/12:30pm 11.8 9.8 10.2 90 0.8 NW 11 20 6 11 1008.3 1008.3 0.8
01/12:00pm 11.8 10.2 10.2 90 0.8 NW 9 19 5 10 1008.2 1008.2 0.4
01/11:30am 11.6 8.3 9.7 88 1.0 NNW 17 32 9 17 1008.3 1008.3 0.4
01/11:00am 13.1 11.1 8.6 74 2.3 NW 9 17 5 9 1008.4 1008.4 0.0
01/10:30am 13.9 10.5 7.7 66 3.1 NNW 15 30 8 16 1008.5 1008.5 0.0
01/10:00am 13.9 10.9 7.9 67 3.0 NW 13 24 7 13 1008.9 1008.9 0.0
01/09:30am 13.9 11.8 8.3 69 2.8 NW 9 17 5 9 1008.2 1008.2 0.0
01/09:00am 14.2 10.0 7.5 64 3.3 NNW 19 30 10 16 1008.5 1008.5 0.0
01/08:30am 14.6 11.9 7.2 61 3.6 WNW 11 26 6 14 1008.4 1008.4 0.0
01/08:00am 14.9 11.0 7.0 59 3.9 W 17 24 9 13 1008.1 1008.1 0.0
01/07:30am 14.8 12.9 7.6 62 3.6 WNW 7 17 4 9 1007.8 1007.8 0.0
01/07:00am 14.7 12.5 7.7 63 3.5 WNW 9 17 5 9 1007.7 1007.7 0.0
01/06:30am 15.4 13.6 7.9 61 3.8 NW 7 17 4 9 1007.8 1007.8 0.0
01/06:00am 15.9 13.4 8.2 60 3.9 WNW 11 22 6 12 1008.2 1008.2 0.0
01/05:30am 15.8 10.4 7.8 59 4.0 NNW 26 35 14 19 1007.1 1007.1 0.0
01/05:00am 16.3 10.9 7.8 57 4.3 N 26 35 14 19 1006.9 1006.9 0.0
01/04:30am 16.7 10.0 7.4 54 4.6 N 32 48 17 26 1006.6 1006.6 0.0
01/04:12am 16.6 9.9 7.5 55 4.6 N 32 56 17 30 1007.5 1007.5 0.0
01/04:00am 16.2 11.2 7.9 58 4.2 NNW 24 37 13 20 1008.0 1008.0 0.0
01/03:30am 16.9 9.6 7.3 53 4.8 N 35 43 19 23 1007.9 1007.9 0.0
01/03:00am 16.8 8.5 7.7 55 4.6 N 41 50 22 27 1008.2 1008.2 0.0
01/02:49am 17.1 9.1 7.5 53 4.8 N 39 56 21 30 1008.1 1008.1 0.0
01/02:30am 16.5 10.0 8.0 57 4.3 N 32 37 17 20 1008.5 1008.5 0.0
01/02:00am 16.1 9.6 8.3 60 4.0 N 32 37 17 20 1008.7 1008.7 0.0
01/01:30am 15.4 9.8 8.9 65 3.3 N 28 33 15 18 1009.2 1009.2 0.0
01/01:00am 14.4 11.1 9.4 72 2.6 N 17 20 9 11 1009.7 1009.7 0.0
01/12:30am 14.5 13.1 9.7 73 2.5 NNE 7 11 4 6 1009.7 1009.7 0.0
01/12:00am 14.4 12.9 9.0 70 2.8 NE 7 7 4 4 1010.0 1010.0 0.0
 
Date/Time
EST
Tmp

°C
App
Tmp
°C
Dew
Point
°C
Rel
Hum
%
Delta-T

°C
Wind Press
QNH
hPa
Press
MSL
hPa
Rain
since
9 am
mm
Dir
 
Spd
km/h
Gust
km/h
Spd
kts
Gust
kts
31/11:30pm 14.7 13.8 9.1 69 2.9 NE 4 7 2 4 1010.2 1010.2 0.0
31/11:00pm 14.1 12.4 9.9 76 2.2 ENE 9 11 5 6 1010.4 1010.4 0.0
31/10:30pm 14.8 8.9 9.2 69 2.9 NE 30 33 16 18 1010.4 1010.4 0.0
31/10:00pm 15.4 10.3 9.3 67 3.1 NNE 26 32 14 17 1011.2 1011.2 0.0
31/09:30pm 15.4 11.6 9.1 66 3.2 NNE 19 26 10 14 1011.8 1011.8 0.0
31/09:00pm 15.6 11.9 9.3 66 3.3 N 19 26 10 14 1012.1 1012.1 0.0
31/08:30pm 15.6 12.2 9.3 66 3.2 N 17 26 9 14 1012.5 1012.5 0.0
31/08:00pm 15.4 12.2 10.0 70 2.8 N 17 20 9 11 1012.9 1012.9 0.0
31/07:30pm 15.3 12.1 9.9 70 2.8 N 17 19 9 10 1013.0 1013.0 0.0
31/07:00pm 16.1 11.8 9.5 65 3.4 N 22 28 12 15 1013.1 1013.1 0.0
31/06:30pm 16.1 13.0 10.2 68 3.1 N 17 24 9 13 1013.1 1013.1 0.0
31/06:00pm 16.0 13.3 10.3 69 3.0 N 15 20 8 11 1013.3 1013.3 0.0
31/05:30pm 16.5 14.2 10.4 67 3.2 N 13 20 7 11 1013.2 1013.2 0.0
31/05:00pm 16.3 14.2 11.0 71 2.8 N 13 17 7 9 1013.1 1013.1 0.0
31/04:30pm 17.0 13.8 9.9 63 3.7 N 17 22 9 12 1013.1 1013.1 0.0
31/04:00pm 17.1 12.5 9.8 62 3.8 N 24 28 13 15 1013.3 1013.3 0.0
31/03:30pm 18.0 13.6 9.1 56 4.6 N 22 28 12 15 1013.6 1013.6 0.0
31/03:00pm 17.9 13.2 9.3 57 4.5 N 24 28 13 15 1014.0 1014.0 0.0
31/02:30pm 17.7 12.6 9.3 58 4.4 NNW 26 32 14 17 1014.3 1014.3 0.0
31/02:00pm 17.7 12.7 9.6 59 4.3 N 26 33 14 18 1014.5 1014.5 0.0
31/01:30pm 19.2 12.8 8.5 50 5.6 N 32 39 17 21 1014.8 1014.8 0.0
31/01:00pm 18.9 12.6 8.8 52 5.3 N 32 39 17 21 1015.2 1015.2 0.0
31/12:30pm 18.8 11.6 9.0 53 5.1 N 37 48 20 26 1015.4 1015.4 0.0
31/12:00pm 18.7 12.5 9.5 55 4.8 N 32 39 17 21 1016.0 1016.0 0.0
31/11:30am 18.2 12.7 9.3 56 4.7 N 28 35 15 19 1016.7 1016.7 0.0
31/11:00am 17.7 14.0 9.6 59 4.2 N 19 26 10 14 1017.1 1017.1 0.0
31/10:30am 17.2 13.5 9.6 61 4.0 N 19 26 10 14 1017.5 1017.5 0.0
31/10:00am 16.1 14.8 11.1 72 2.7 N 9 17 5 9 1018.1 1018.1 0.0
31/09:30am 15.4 14.0 10.8 74 2.4 NNE 9 13 5 7 1018.4 1018.4 0.0
31/09:00am 13.5 12.3 9.6 77 2.0 NNE 6 11 3 6 1018.8 1018.8 0.0
31/08:30am 13.1 10.6 9.7 80 1.7 NE 13 15 7 8 1018.8 1018.8 0.0
31/08:00am 11.7 8.5 8.6 81 1.5 NNE 15 17 8 9 1018.8 1018.8 0.0
31/07:30am 11.4 9.5 9.0 85 1.2 NNE 9 11 5 6 1019.0 1019.0 0.0
31/07:00am 10.3 8.7 8.2 87 1.0 N 6 9 3 5 1018.9 1018.9 0.0
31/06:30am 10.3 8.7 8.2 87 1.0 N 6 7 3 4 1018.8 1018.8 0.0
31/06:00am 10.2 8.5 8.3 88 0.9 NNE 7 11 4 6 1018.7 1018.7 0.0
31/05:30am 10.7 8.0 9.0 89 0.8 NNE 13 17 7 9 1018.5 1018.5 0.0
31/05:00am 10.3 8.0 8.9 91 0.7 NE 11 13 6 7 1018.4 1018.4 0.0
31/04:30am 10.2 8.2 8.8 91 0.7 NE 9 11 5 6 1018.5 1018.5 0.0
31/04:00am 10.5 8.9 8.9 90 0.8 NE 7 9 4 5 1018.6 1018.6 0.0
31/03:30am 10.6 8.7 8.9 89 0.8 NE 9 15 5 8 1018.8 1018.8 0.0
31/03:00am 11.3 8.3 9.4 88 1.0 NNE 15 17 8 9 1018.9 1018.9 0.0
31/02:30am 11.3 7.6 9.6 89 0.9 NE 19 22 10 12 1019.0 1019.0 0.0
31/02:00am 11.2 7.3 9.5 89 0.9 NE 20 22 11 12 1019.4 1019.4 0.0
31/01:30am 11.3 9.1 9.4 88 1.0 NNE 11 17 6 9 1019.8 1019.8 0.0
31/01:00am 11.3 9.5 9.6 89 0.9 NNE 9 13 5 7 1020.1 1020.1 0.0
31/12:30am 11.3 7.1 9.6 89 0.9 NE 22 28 12 15 1020.1 1020.1 0.0
31/12:00am 11.6 6.3 9.7 88 1.0 NE 28 32 15 17 1020.2 1020.2 0.0
 
Date/Time
EST
Tmp

°C
App
Tmp
°C
Dew
Point
°C
Rel
Hum
%
Delta-T

°C
Wind Press
QNH
hPa
Press
MSL
hPa
Rain
since
9 am
mm
Dir
 
Spd
km/h
Gust
km/h
Spd
kts
Gust
kts
30/11:30pm 11.7 6.3 9.6 87 1.1 NE 28 32 15 17 1020.3 1020.3 0.0
30/11:00pm 12.0 6.7 9.7 86 1.2 NE 28 32 15 17 1020.7 1020.7 0.0
30/10:30pm 12.1 7.1 9.7 85 1.2 NE 26 30 14 16 1021.2 1021.2 0.0
30/10:00pm 12.3 7.3 9.5 83 1.4 NE 26 32 14 17 1021.6 1021.6 0.0
30/09:30pm 12.4 7.4 9.6 83 1.4 NE 26 32 14 17 1021.7 1021.7 0.0
30/09:00pm 12.7 8.5 9.7 82 1.5 NE 22 28 12 15 1021.8 1021.8 0.0
30/08:30pm 12.9 8.3 9.7 81 1.6 NE 24 30 13 16 1021.7 1021.7 0.0
30/08:00pm 12.9 8.7 9.7 81 1.6 NE 22 26 12 14 1021.5 1021.5 0.0
30/07:30pm 13.3 9.2 10.1 81 1.7 NE 22 26 12 14 1021.4 1021.4 0.0
30/07:00pm 13.4 10.3 10.4 82 1.6 NE 17 20 9 11 1021.5 1021.5 0.0
30/06:30pm 13.3 12.2 10.7 84 1.4 ENE 7 9 4 5 1021.7 1021.7 0.0
30/06:00pm 14.3 13.8 10.9 80 1.8 ESE 4 7 2 4 1021.7 1021.7 0.0
30/05:30pm 14.7 12.5 10.7 77 2.1 ENE 13 13 7 7 1021.6 1021.6 0.0
30/05:00pm 15.6 14.2 11.0 74 2.4 ENE 9 11 5 6 1021.6 1021.6 0.0
30/04:30pm 15.8 14.4 10.8 72 2.7 ESE 9 11 5 6 1021.7 1021.7 0.0
30/04:00pm 16.2 14.7 10.7 70 2.9 ESE 9 9 5 5 1021.7 1021.7 0.0
30/03:30pm 16.5 15.1 9.7 64 3.6 ESE 7 7 4 4 1021.9 1021.9 0.0
30/03:00pm 16.8 15.5 11.1 69 3.1 ESE 9 11 5 6 1022.1 1022.1 0.0
30/02:30pm 17.7 16.8 11.5 67 3.4 E 7 7 4 4 1022.4 1022.4 0.0
30/02:00pm 18.0 17.7 11.3 65 3.6 E 4 6 2 3 1022.7 1022.7 0.0
30/01:30pm 18.0 17.5 10.9 63 3.8 NE 4 4 2 2 1023.1 1023.1 0.0
30/01:00pm 16.5 16.4 10.8 69 3.0 E 2 4 1 2 1023.4 1023.4 0.0
30/12:30pm 16.3 16.3 11.0 71 2.8 E 2 4 1 2 1024.0 1024.0 0.0
30/12:00pm 15.2 14.6 10.4 73 2.5 ESE 4 6 2 3 1024.5 1024.5 0.0
30/11:30am 15.8 14.9 11.4 75 2.4 E 7 9 4 5 1024.9 1024.9 0.0
30/11:00am 14.8 13.8 10.4 75 2.3 E 6 7 3 4 1025.5 1025.5 0.0
30/10:30am 14.2 13.2 10.2 77 2.1 E 6 7 3 4 1025.8 1025.8 0.0
30/10:00am 13.7 12.9 9.6 76 2.1 ENE 4 6 2 3 1026.2 1026.2 0.0
30/09:30am 12.4 11.4 8.7 78 1.8 NE 4 6 2 3 1026.4 1026.4 0.0
30/09:00am 12.7 12.3 9.7 82 1.5 NE 2 4 1 2 1026.5 1026.5 0.4
30/08:30am 11.2 10.1 8.4 83 1.4 NNE 4 6 2 3 1026.5 1026.5 0.4
30/08:00am 11.0 9.7 9.3 89 0.8 NE 6 9 3 5 1026.5 1026.5 0.4

Latest Capital City Observations: Canberra | Sydney | Melbourne | Brisbane | Adelaide | Perth | Hobart | Darwin

Other Formats:

Comma delimited format used in spreadsheet applications
http://www.bom.gov.au/fwo/IDV60901/IDV60901.94892.axf

JavaScript Object Notation format (JSON) in row-major order
http://www.bom.gov.au/fwo/IDV60901/IDV60901.94892.json